Dewpoint
55 56 56 56 56 56 56 56 57 57 57 57 57 57 57 57 57 58 58 58 59 59 59 59 60 60 60 61 61 61 59 50 47 43 38 37 47 62 62 65 65 64 58 35 35 32 31 31 30 32 37 35 37 33 37 37 40 34 25 25 20 21 22 27 25 24 24 21 20 19 19 15 16 20 19 19 20 20 19 18 19 21 22 24 24 41 47 49
55 56 55 56 56 56 56 56 56 57 56 56 57 57 57 58 57 58 58 58 58 58 59 59 59 60 60 60 61 61 57 48 44 42 38 49 66 66 65 66 65 63 50 34 32 32 30 29 31 35 32 29 38 36 38 35 37 31 29 19 17 26 27 31 27 25 21 22 20 20 21 16 18 20 21 18 18 18 19 19 20 19 19 20 20 24 47 48
56 55 55 55 56 56 56 56 56 56 57 56 56 57 57 58 58 58 58 58 58 58 59 59 59 60 60 60 60 60 54 44 31 26 32 62 67 68 66 66 64 60 39 36 34 31 29 29 30 32 32 29 31 32 36 34 34 34 29 25 28 28 26 30 27 25 22 23 22 21 22 20 21 22 22 20 19 20 19 19 18 17 16 19 20 22 34 47
55 56 55 56 55 56 56 56 56 57 57 57 57 57 57 58 58 59 58 58 59 59 59 59 59 59 59 60 60 57 46 31 25 26 38 63 67 67 67 65 63 53 39 37 33 31 30 30 31 31 32 28 29 36 34 36 29 32 28 27 28 31 27 25 30 28 28 23 22 22 22 22 21 21 21 21 20 20 20 20 18 17 17 18 20 24 27 43
55 55 55 55 55 55 56 56 56 57 57 57 58 58 57 58 58 58 59 59 59 59 59 59 59 59 59 60 60 52 38 22 23 31 38 65 67 66 66 65 62 43 40 38 31 29 28 28 29 30 31 27 28 30 33 35 32 34 29 30 31 30 27 26 26 27 26 23 22 22 22 22 23 24 21 21 20 20 20 20 20 19 19 20 20 22 31 39
55 55 55 55 55 55 55 56 56 57 57 58 58 58 58 58 58 58 59 59 58 58 58 59 59 59 59 59 54 47 32 23 27 32 65 66 66 67 66 64 60 44 40 34 33 30 28 26 26 27 25 22 23 20 20 33 34 27 29 30 31 29 27 27 25 24 24 24 22 22 23 22 23 21 23 22 21 21 22 21 21 21 22 22 23 25 24 25
55 55 55 55 55 55 55 56 56 57 57 58 58 58 58 59 59 59 59 58 58 58 58 58 58 59 59 58 51 35 32 31 38 41 63 66 66 65 63 61 53 41 36 34 31 29 29 25 24 27 25 23 22 22 22 25 29 30 27 29 28 31 29 30 29 29 27 23 22 22 22 20 20 19 21 21 21 22 22 21 22 22 24 22 21 21 24 29
57 55 56 56 55 55 55 56 56 57 57 58 58 58 59 59 59 59 59 59 58 58 58 58 58 58 58 50 38 36 35 30 34 45 59 62 56 57 53 46 43 40 34 32 30 28 27 24 23 27 22 19 20 22 25 25 28 31 30 29 27 23 27 29 28 25 23 22 21 22 21 19 20 19 20 19 19 19 19 22 22 21 20 20 26 30 33 36
58 58 58 58 56 56 55 56 56 57 57 58 58 59 59 59 59 59 59 58 58 58 58 58 58 58 57 43 33 30 28 39 43 53 59 54 52 47 43 39 41 37 37 34 30 31 28 25 25 22 18 22 23 22 25 21 20 28 28 25 22 21 21 21 21 21 21 21 22 20 19 20 20 21 19 19 19 20 22 21 21 21 22 26 33 35 36 36
58 58 58 57 57 56 55 56 56 57 58 58 58 59 59 59 59 59 59 59 58 58 58 58 58 58 47 37 35 30 35 46 55 60 55 54 50 45 44 42 38 36 34 35 30 29 28 28 27 28 26 26 26 24 25 23 21 25 25 22 21 21 22 22 21 20 21 21 21 19 18 18 20 20 17 19 20 22 20 20 20 22 28 34 35 36 36 36
58 58 57 57 57 56 55 56 57 57 58 58 58 59 59 59 59 59 59 58 58 58 58 58 58 53 46 37 32 30 40 49 53 57 53 49 45 43 44 44 41 37 36 38 33 31 31 30 35 32 31 24 23 22 23 22 22 23 23 22 21 21 21 21 21 20 20 18 20 19 18 20 20 23 17 18 20 22 20 19 22 28 33 35 36 36 37 36
58 58 57 56 56 55 56 57 57 57 58 58 59 59 59 59 59 59 59 58 57 57 57 58 58 52 46 35 31 33 44 47 54 54 49 48 47 45 45 45 41 41 36 35 38 41 42 35 35 27 23 28 23 24 22 23 25 24 21 20 20 19 19 19 19 20 20 19 20 19 18 18 21 18 19 20 21 20 19 20 25 31 34 35 35 35 35 36
58 57 57 56 55 55 56 57 57 58 58 58 59 59 59 59 59 59 59 58 58 58 57 58 55 53 41 36 37 40 44 46 52 49 47 48 47 47 48 47 44 42 39 36 36 39 43 37 33 29 31 26 25 23 25 26 25 22 20 19 18 20 20 21 21 21 20 20 20 20 18 19 19 19 19 20 20 19 19 19 27 33 35 35 35 34 34 35
58 57 56 56 56 55 56 57 57 58 58 59 59 59 59 59 59 59 58 57 58 57 59 58 53 49 38 35 38 41 43 49 48 48 47 47 42 43 44 42 44 43 44 39 39 41 42 40 35 33 35 26 25 31 24 24 23 21 20 20 20 19 20 22 20 21 20 22 20 19 19 18 18 18 20 22 19 19 18 20 30 34 34 34 34 34 34 34
58 57 56 55 56 57 56 57 58 58 59 59 59 59 59 59 59 59 58 57 56 58 57 57 49 39 38 37 40 40 55 46 46 46 48 42 40 40 41 38 38 40 41 38 38 42 42 38 34 30 28 29 29 24 23 24 25 24 20 21 26 19 22 23 23 22 20 20 20 18 20 17 17 18 19 20 20 20 19 25 33 34 33 33 33 33 33 33
57 57 56 55 56 56 56 57 58 59 59 59 59 59 59 59 59 59 57 57 57 58 53 49 48 38 34 34 37 48 40 41 41 44 45 46 41 38 41 40 41 36 35 33 39 38 31 33 29 28 26 25 24 26 25 22 24 26 20 23 23 21 20 21 22 23 24 20 18 18 19 17 19 20 21 21 24 22 22 30 33 33 32 32 32 32 33 33
57 56 56 57 57 55 56 57 58 58 59 59 59 59 59 59 60 57 58 58 55 54 52 46 47 42 34 38 40 36 35 38 44 42 40 44 44 42 39 38 36 33 35 33 36 33 29 27 30 26 28 24 24 25 19 22 21 22 24 20 25 21 20 20 22 24 27 21 18 21 16 17 18 18 20 25 24 23 24 32 32 32 31 32 32 32 32 32
57 57 58 58 57 56 57 57 58 58 59 59 59 58 58 59 58 57 55 55 53 51 50 52 44 38 34 39 35 35 42 41 43 43 42 40 44 39 38 34 35 34 33 29 30 26 30 26 29 26 26 25 22 22 21 19 22 23 22 20 21 24 21 20 21 22 24 25 24 24 21 19 21 23 25 24 24 25 29 32 31 31 31 32 32 32 32 32
58 58 58 58 57 57 57 58 58 59 59 59 59 58 57 57 51 52 52 51 46 43 39 40 37 33 31 36 38 41 44 44 42 40 38 40 43 39 38 37 35 30 30 30 29 27 29 30 31 25 23 23 21 20 20 23 24 23 25 24 25 24 24 23 23 24 24 23 24 24 24 25 25 25 24 25 29 29 32 31 31 31 31 31 31 31 32 32
58 58 58 58 58 58 58 58 58 59 59 58 57 55 49 46 44 43 46 48 45 43 41 40 40 38 39 38 39 42 44 40 36 37 40 41 40 37 34 34 35 34 31 33 31 28 31 26 24 24 25 24 23 21 21 22 25 25 26 25 24 24 24 24 25 25 25 24 24 24 24 24 24 24 28 29 31 31 31 31 31 31 31 31 31 31 31 31
58 58 58 58 58 57 57 57 58 59 59 58 56 49 44 43 39 39 43 44 47 47 45 43 41 40 37 40 40 39 35 35 39 40 39 44 39 34 33 32 32 32 31 34 31 29 28 26 26 27 26 26 25 24 23 22 22 22 23 22 22 24 22 24 24 26 26 25 24 23 24 25 24 26 30 32 31 31 30 30 30 30 31 31 31 30 30 31
58 58 58 57 57 57 57 58 58 59 59 57 54 48 45 45 45 45 44 41 45 46 46 45 44 42 42 40 39 40 42 40 39 39 42 41 35 33 33 32 31 32 32 30 29 27 26 26 26 26 28 28 26 24 23 22 22 23 22 23 23 24 25 25 27 28 26 26 24 25 24 25 25 29 31 31 31 32 32 32 31 31 31 31 30 30 30 30
58 58 57 57 57 57 57 58 58 59 57 54 49 44 44 45 47 47 45 41 42 45 45 45 44 44 44 45 44 42 39 38 39 41 39 40 36 34 32 31 31 32 32 29 29 26 26 28 27 27 28 27 27 26 23 26 27 25 25 24 25 27 25 25 27 29 28 26 26 26 25 26 26 29 30 31 31 31 32 31 32 32 31 30 30 30 29 29
57 57 57 57 57 58 58 58 59 57 55 54 48 46 47 47 46 44 42 39 39 40 43 44 44 44 44 43 44 42 41 41 41 41 41 36 34 36 32 31 30 31 30 29 30 28 29 29 31 28 29 27 27 29 27 27 26 28 28 27 27 27 27 27 26 27 28 28 26 23 24 23 25 26 27 30 31 30 31 30 30 31 31 31 30 29 30 28
57 57 57 57 58 58 58 59 56 55 52 48 47 48 47 46 46 44 40 35 34 37 44 42 43 42 43 41 42 42 40 38 41 41 41 36 34 33 32 32 32 30 31 30 29 29 29 30 33 31 30 29 28 28 29 29 27 28 29 28 28 28 27 28 27 26 25 26 26 22 19 19 23 25 27 28 30 30 30 29 30 30 30 29 28 28 28 28
57 57 57 58 58 58 59 54 53 52 52 50 50 48 47 45 45 43 36 32 32 34 38 36 42 39 41 36 39 40 41 40 37 38 43 38 39 35 33 31 33 33 31 30 29 30 29 31 32 31 30 29 28 28 30 30 28 26 28 30 29 29 28 27 26 26 22 21 24 25 19 19 23 23 26 27 29 29 29 29 29 29 29 29 28 28 28 27
57 57 57 58 58 58 55 52 53 53 51 51 50 49 47 46 46 43 36 32 30 35 36 40 38 37 38 36 38 39 33 35 36 38 37 40 36 38 34 33 32 32 32 31 31 30 31 30 30 30 30 30 28 28 30 30 29 27 28 29 29 28 27 27 26 27 25 25 26 25 24 22 22 23 26 28 28 28 28 28 28 28 28 28 28 28 27 26
58 58 58 58 58 58 56 55 54 52 52 52 49 48 47 47 46 42 35 30 30 36 35 36 37 39 36 33 37 35 34 35 34 36 36 38 36 34 32 30 32 32 30 32 28 32 31 29 29 29 29 28 29 30 30 32 29 28 29 29 28 29 27 26 25 24 24 23 24 23 25 20 20 23 26 28 27 26 27 28 28 28 28 28 28 28 26 26
58 58 58 58 58 58 59 56 54 52 52 50 49 49 48 47 44 38 34 30 34 34 35 31 38 34 32 33 32 29 31 28 31 34 36 37 37 34 33 32 32 32 30 32 30 29 31 30 31 32 30 29 30 29 31 32 28 29 29 29 28 27 27 25 24 24 23 21 21 23 24 17 19 22 24 25 24 26 27 28 28 28 28 28 27 26 26 25
58 58 58 58 58 57 57 56 55 53 51 51 50 49 48 46 41 34 32 28 33 29 31 31 31 30 31 31 30 28 26 27 32 32 33 34 34 32 30 33 28 28 29 28 28 31 30 34 34 30 30 31 31 30 31 31 30 30 29 29 27 25 25 24 23 22 21 16 23 23 24 20 17 21 24 24 25 26 28 27 28 29 28 28 27 26 26 25
58 58 58 58 55 56 56 53 56 52 52 52 51 51 49 47 39 34 30 34 36 34 31 30 29 31 28 29 28 28 27 28 30 32 31 33 32 32 30 28 30 28 26 27 27 28 29 29 28 29 33 31 31 28 28 29 29 28 27 26 26 26 19 19 15 20 17 19 19 22 24 22 16 18 22 25 26 27 28 27 27 27 27 27 26 26 26 25
57 58 58 57 57 57 54 53 55 53 52 52 52 50 47 37 39 32 32 32 33 33 30 29 31 28 27 30 28 29 27 27 29 31 31 29 30 31 29 28 28 22 24 24 27 26 27 28 30 29 34 30 28 29 28 28 28 28 27 27 21 17 18 12 11 13 16 18 17 22 23 21 20 21 23 27 26 26 28 27 27 26 26 26 26 25 26 25
57 57 57 57 55 55 56 52 53 53 53 53 52 50 41 35 30 36 33 33 30 33 30 34 30 30 29 28 27 28 30 26 27 29 31 29 30 31 30 28 29 27 22 24 25 24 26 27 28 29 28 31 31 26 25 25 26 27 26 23 18 16 14 9 10 6 9 15 18 21 23 19 22 23 26 26 26 26 27 28 28 26 26 25 25 25 25 24
56 56 55 54 55 54 53 53 53 53 53 52 50 44 38 32 31 39 35 33 34 37 35 33 32 32 29 27 29 30 26 31 29 27 29 28 27 27 28 30 29 28 26 24 23 23 19 23 26 28 27 30 31 28 28 27 26 28 27 27 25 19 9 12 6 9 11 14 12 15 14 13 16 18 25 26 26 26 27 27 27 26 26 25 25 25 24 23
54 53 52 51 52 52 53 53 53 54 54 51 46 41 32 32 33 34 34 33 34 36 36 37 32 32 31 32 33 33 33 30 32 30 29 28 27 27 27 28 31 31 29 25 26 23 24 25 26 29 29 30 30 31 30 27 26 25 26 26 21 23 21 16 13 7 5 11 12 14 16 18 20 24 26 25 25 25 26 26 26 25 25 25 24 23 23 23
51 49 51 50 51 52 53 53 53 53 53 48 42 35 33 35 32 33 34 37 37 35 35 37 36 31 32 32 35 33 35 31 33 30 28 30 30 28 30 31 30 30 29 26 28 25 23 24 27 30 29 29 29 30 29 29 21 25 26 21 26 26 22 16 16 14 13 11 18 9 20 23 23 25 24 24 25 24 24 24 24 24 24 24 23 23 23 23
48 49 48 49 49 52 53 53 53 53 52 47 40 34 38 35 35 35 41 35 37 38 36 34 35 32 31 31 31 32 34 33 32 29 27 30 28 29 29 31 32 31 30 28 27 29 23 24 27 27 27 28 29 30 29 29 28 26 21 25 27 27 26 21 15 11 7 13 14 13 16 18 18 17 23 23 23 23 23 23 23 23 24 22 22 23 24 23
47 47 48 47 49 52 53 53 53 52 50 44 38 38 37 36 36 35 38 37 37 39 38 36 36 34 32 31 31 31 33 31 32 30 29 29 27 30 28 29 31 31 30 32 27 30 29 24 26 28 28 29 28 28 28 28 29 27 25 28 23 17 18 21 15 13 13 11 11 13 18 17 20 19 22 23 23 24 23 23 23 23 23 22 22 23 24 24
47 47 44 47 50 52 52 53 53 50 46 41 38 38 39 37 37 36 36 37 39 38 37 36 34 35 34 31 32 31 33 31 32 30 28 29 28 31 30 31 29 33 33 32 29 30 28 25 26 28 29 29 27 28 25 26 28 29 27 26 26 23 18 17 21 16 14 8 10 9 12 17 20 21 23 23 24 24 23 23 23 22 22 23 23 23 23 23
45 43 42 48 50 52 52 53 50 48 44 38 39 38 38 36 37 39 41 37 37 38 35 35 35 33 33 33 31 30 31 32 31 31 29 30 29 32 28 33 30 31 33 33 31 33 29 28 23 25 27 27 26 26 26 27 25 26 26 24 25 20 24 24 19 19 18 8 10 12 13 18 21 23 24 24 24 24 24 23 23 23 23 24 24 24 24 23
45 43 40 49 51 52 52 50 45 42 41 38 39 37 36 36 37 37 41 40 38 39 38 36 35 34 32 32 33 31 30 31 31 30 29 29 28 25 30 33 33 31 31 30 29 29 25 25 26 23 25 26 27 27 28 28 29 28 27 26 26 22 19 18 20 21 14 17 14 13 17 19 23 28 26 25 25 25 24 24 24 23 23 23 24 24 24 24
42 36 40 48 50 52 49 43 40 40 38 37 38 38 37 40 36 36 37 39 38 36 37 35 34 33 32 33 32 31 30 29 30 29 29 29 29 28 31 33 33 30 29 25 28 28 29 27 23 22 24 25 27 29 28 28 27 27 28 26 27 25 24 17 20 18 16 19 16 13 16 21 26 27 28 28 25 25 25 24 23 23 23 24 25 25 25 25
40 39 45 47 50 50 44 36 38 37 36 39 40 39 39 38 36 36 37 38 36 37 35 35 34 33 32 33 32 31 31 29 29 29 28 28 28 29 31 32 32 30 30 28 29 30 33 22 21 26 24 25 26 26 28 28 27 26 27 27 26 25 26 24 21 18 17 13 15 13 18 23 28 28 26 25 24 24 24 24 24 24 24 24 25 27 27 27
41 41 43 47 49 48 41 34 34 35 36 38 37 38 39 38 37 36 36 38 37 36 36 35 35 34 32 34 32 32 32 28 30 29 29 28 28 32 31 31 33 29 29 29 28 32 24 25 26 19 19 21 24 24 24 28 27 25 25 26 26 25 24 20 18 18 19 19 20 17 18 20 27 26 24 25 25 25 24 25 24 24 25 26 26 27 28 28
40 41 42 44 47 46 38 38 35 34 35 35 35 35 36 36 38 37 37 36 38 38 35 34 35 35 34 34 33 33 32 31 27 29 29 29 28 30 31 29 31 31 33 34 35 30 27 26 25 22 22 20 19 19 15 18 24 24 24 24 25 26 22 22 20 21 22 25 23 21 21 22 26 26 26 26 25 25 24 25 26 26 27 27 28 28 28 28
36 31 39 40 43 43 41 42 40 37 34 33 33 35 35 34 35 36 38 36 38 38 38 35 35 36 33 32 31 31 32 32 30 27 28 28 28 29 31 28 30 30 36 38 33 30 25 24 25 27 25 23 23 20 19 26 23 21 20 22 24 24 23 23 19 19 22 22 22 23 23 23 24 24 25 24 23 25 25 26 27 27 27 29 28 29 29 28
36 32 34 31 39 40 38 41 39 38 33 37 32 34 32 34 35 34 38 34 36 37 36 36 34 33 32 33 32 32 32 32 31 29 28 26 28 29 28 28 29 33 36 34 33 28 24 25 25 25 26 27 25 25 27 29 24 25 23 24 24 24 22 22 22 20 22 20 20 23 24 21 23 24 25 24 24 25 26 26 26 26 25 25 26 27 29 24
32 32 37 39 35 31 34 35 39 37 37 37 33 34 33 33 33 32 34 36 35 37 34 33 34 34 33 33 32 30 31 31 30 30 27 26 30 30 28 28 29 32 32 29 29 30 26 25 24 26 25 25 25 26 28 27 27 27 27 26 25 25 22 22 21 24 24 22 19 21 24 24 24 24 25 26 26 25 25 26 26 26 25 24 24 24 25 24
35 31 35 36 34 33 36 36 38 38 37 36 34 34 32 32 32 33 32 33 33 33 35 31 33 35 34 34 33 31 30 28 29 28 28 27 26 26 26 28 29 26 27 28 26 24 25 21 19 22 21 22 24 25 25 26 23 23 24 25 25 25 24 23 22 24 24 23 23 23 22 22 22 22 23 26 27 26 25 24 22 21 22 24 23 23 24 24
30 29 29 34 33 30 31 36 37 37 35 37 33 33 33 32 31 31 31 33 31 32 34 33 31 32 33 33 33 32 31 31 28 28 26 29 25 25 24 27 25 26 26 28 27 28 29 25 27 22 23 20 19 23 23 23 23 21 23 24 24 22 20 22 23 23 21 20 22 22 21 21 23 23 21 22 24 24 22 21 21 21 21 22 23 23 23 23
33 34 33 32 30 30 31 34 35 36 34 36 34 34 34 33 31 32 31 33 32 31 33 33 33 29 30 32 33 33 33 31 30 30 28 31 30 29 29 27 29 24 25 25 23 25 25 21 20 20 20 20 21 22 20 19 18 19 19 19 18 16 16 17 17 19 19 18 19 17 15 18 20 20 21 18 19 20 20 20 20 19 20 22 22 22 23 22
32 32 34 32 29 33 30 31 34 34 32 34 35 34 34 33 33 32 30 31 33 33 34 34 34 33 30 31 32 33 33 32 32 32 31 30 30 28 29 28 30 29 23 27 22 24 24 21 17 15 18 19 18 16 16 15 17 16 17 17 17 16 17 16 17 17 18 17 16 14 15 19 19 19 17 18 17 17 17 17 17 17 20 22 22 22 22 21